Regional Weather Roundup
Issued by NWS

Home | Current Version | Previous Version | Graphics & Text | Print | Product List | Glossary On
Versions: 1 2 3 4 5 6 7 8 9 10 11 12 13 14 15 16 17 18 19 20 21 22 23 24 25 26 27 28 29 30 31 32 33 34 35 36 37 38 39 40 41 42 43 44 45 46 47 48 49 50
000
ASUS43 KOAX 232002
RWRNE

WEATHER ROUNDUP FOR NEBRASKA
NATIONAL WEATHER SERVICE OMAHA NE
300 PM CDT SUN APR 23 2017

NOTES: SATELLITE DATA IS BEING USED TO AUGMENT CLOUD COVER ABOVE
       12000 FEET.
       "FAIR" INDICATES FEW OR NO CLOUDS BELOW 12,000 FEET WITH NO
       SIGNIFICANT WEATHER AND/OR OBSTRUCTIONS TO VISIBILITY.

  * THESE STATIONS DO NOT REPORT WEATHER SUCH AS RAIN...SNOW OR FOG.

NEZ001>004-019>022-054>056-232100-
NEBRASKA PANHANDLE

CITY           SKY/WX    TMP DP  RH WIND       PRES   REMARKS
SCOTTSBLUFF    CLOUDY    75  27  17 S8        29.76F
ALLIANCE       SUNNY     70  33  25 S21G30    29.79F
CHADRON        CLOUDY    74  31  20 SW15G23   29.73F
KIMBALL        CLOUDY    66  39  37 S17       29.84F
SIDNEY         CLOUDY    67  41  38 S17G24    29.84F
$$

NEZ057>060-069>072-079>082-232100-
SOUTHWEST NEBRASKA

CITY           SKY/WX    TMP DP  RH WIND       PRES   REMARKS
NORTH PLATTE   CLOUDY    69  31  24 S23G35    29.87F
IMPERIAL       CLOUDY    66  38  35 S28G37    29.88F
LEXINGTON      MOSUNNY   69  25  19 S23G35    29.96F
MCCOOK         MOSUNNY   68  36  30 S24G33    29.94F
OGALLALA       CLOUDY    70  34  26 S23G32    29.87F
$$

NEZ005>010-023>029-035>040-094-232100-
NORTH CENTRAL NEBRASKA

CITY           SKY/WX    TMP DP  RH WIND       PRES   REMARKS
VALENTINE      SUNNY     74  30  19 SW25G39   29.80F
AINSWORTH      MOSUNNY   70  30  22 S28G39    29.83F
BROKEN BOW     MOSUNNY   70  24  17 S31G43    29.91F
O`NEILL        CLOUDY    69  20  16 S25G35    29.90F
ORD            SUNNY     69  25  19 S24G36    29.92F
THEDFORD       MOSUNNY   70  27  20 S26G33    29.86F
$$

NEZ041-046>049-061>064-073>077-083>087-232100-
SOUTH CENTRAL NEBRASKA

CITY           SKY/WX    TMP DP  RH WIND       PRES   REMARKS
GRAND ISLAND   SUNNY     72  26  18 SW31G37   29.98F
AURORA         SUNNY     71  26  18 S24G32    29.99F
HASTINGS       SUNNY     70  27  20 S17G30    30.00F
HEBRON         SUNNY     69  29  22 S16G24    30.04F
HOLDREGE       MOSUNNY   67  27  22 S28G38    29.98F
KEARNEY *      SUNNY     70  27  19 S31G39    29.97F
YORK           SUNNY     72  25  17 S21G30    30.00F
$$

NEZ011>018-030>034-042>045-232100-
NORTHEAST NEBRASKA

CITY           SKY/WX    TMP DP  RH WIND       PRES   REMARKS
NORFOLK        CLOUDY    71  26  18 S28G35    29.94F
ALBION         SUNNY     71  24  16 SW22G36   29.96F
BLAIR          SUNNY     71  29  20 S18G30    30.02F
FREMONT        SUNNY     70  30  22 S17G23    30.01F
TEKAMAH        MOSUNNY   71  31  22 SW24G31   30.00F
WAYNE          PTSUNNY   70  33  25 S22G30    29.95F
$$

NEZ050>053-065>068-078-088>093-232100-
SOUTHEAST NEBRASKA

CITY           SKY/WX    TMP DP  RH WIND       PRES   REMARKS
LINCOLN        SUNNY     72  28  19 S21G26    30.03F
OMAHA EPPLEY   PTSUNNY   72  26  18 S22G30    30.02F
BEATRICE       SUNNY     69  33  26 S12G22    30.05F
FALLS CITY     SUNNY     69  33  26 SW10      30.08F
NEBRASKA CITY  SUNNY     69  17  13 SW14G22   30.06F
PLATTSMOUTH    SUNNY     70  17  13 S12G21    30.04F
$$

NEZ044-045-051>053-067-232100-
OMAHA AREA

CITY           SKY/WX    TMP DP  RH WIND       PRES   REMARKS
OMAHA EPPLEY   PTSUNNY   72  26  18 S22G30    30.02F
BLAIR          SUNNY     71  29  20 S18G30    30.02F
FREMONT        SUNNY     70  30  22 S17G23    30.01F
MILLARD        SUNNY     72  31  22 S12G21    30.03F
OFFUTT AFB     MOSUNNY   71  31  22 S18G25    30.02F
PLATTSMOUTH    SUNNY     70  17  13 S12G21    30.04F
WAHOO          FAIR      71  25  17 S20       30.01F
$$




USA.gov is the U.S. government's official web portal to all federal, state and local government web resources and services.